Time,TemperatureF,DewpointF,PressureIn,WindDirection,WindDirectionDegrees,WindSpeedMPH,WindSpeedGustMPH,Humidity,HourlyPrecipIn,Conditions,Clouds,dailyrainin,SoftwareType,DateUTC
2013-08-06 00:02:00,63.5,56.8,30.01,SE,145,0.0,0.0,79,0.00,,,0.00,meteohub,2013-08-06 04:02:00,
2013-08-06 00:07:00,63.3,56.7,30.01,SE,145,0.0,0.0,79,0.00,,,0.00,meteohub,2013-08-06 04:07:00,
2013-08-06 00:12:00,63.3,56.7,30.04,SE,145,0.0,0.0,79,0.00,,,0.00,meteohub,2013-08-06 04:12:00,
2013-08-06 00:17:00,63.1,56.5,30.04,SE,145,0.0,0.0,79,0.00,,,0.00,meteohub,2013-08-06 04:17:00,
2013-08-06 00:22:00,63.0,56.7,30.04,SE,145,0.0,0.0,80,0.00,,,0.00,meteohub,2013-08-06 04:22:00,
2013-08-06 00:27:00,63.0,56.7,30.01,SSE,168,0.0,0.0,80,0.00,,,0.00,meteohub,2013-08-06 04:27:00,
2013-08-06 00:32:00,62.6,56.3,30.01,WSW,258,0.0,0.0,80,0.00,,,0.00,meteohub,2013-08-06 04:32:00,
2013-08-06 00:37:00,62.6,56.3,30.01,SE,145,0.0,0.0,80,0.00,,,0.00,meteohub,2013-08-06 04:37:00,
2013-08-06 00:42:00,62.6,56.7,30.01,ESE,122,0.0,0.0,81,0.00,,,0.00,meteohub,2013-08-06 04:42:00,
2013-08-06 00:47:00,62.6,56.7,30.01,South,190,0.0,0.0,81,0.00,,,0.00,meteohub,2013-08-06 04:47:00,
2013-08-06 00:52:00,62.4,56.5,30.01,South,190,0.0,0.0,81,0.00,,,0.00,meteohub,2013-08-06 04:52:00,
2013-08-06 00:57:00,62.2,56.3,30.01,NNW,348,0.0,4.0,81,0.00,,,0.00,meteohub,2013-08-06 04:57:00,
2013-08-06 01:02:00,62.1,56.5,30.01,North,10,0.0,4.0,82,0.00,,,0.00,meteohub,2013-08-06 05:02:00,
2013-08-06 01:07:00,62.1,56.5,30.01,North,10,0.0,4.0,82,0.00,,,0.00,meteohub,2013-08-06 05:07:00,
2013-08-06 01:12:00,62.1,56.5,29.99,East,100,0.0,0.0,82,0.00,,,0.00,meteohub,2013-08-06 05:12:00,
2013-08-06 01:17:00,62.1,56.5,29.99,East,100,0.0,0.0,82,0.00,,,0.00,meteohub,2013-08-06 05:17:00,
2013-08-06 01:22:00,61.9,56.7,29.99,East,100,0.0,0.0,83,0.00,,,0.00,meteohub,2013-08-06 05:22:00,
2013-08-06 01:27:00,61.9,56.7,29.99,WSW,258,0.0,0.0,83,0.00,,,0.00,meteohub,2013-08-06 05:27:00,
2013-08-06 01:32:00,61.9,56.7,29.99,WSW,258,0.0,0.0,83,0.00,,,0.00,meteohub,2013-08-06 05:32:00,
2013-08-06 01:37:00,61.7,56.5,29.99,WSW,258,0.0,0.0,83,0.00,,,0.00,meteohub,2013-08-06 05:37:00,
2013-08-06 01:42:00,61.7,56.5,29.99,SW,235,0.0,0.0,83,0.00,,,0.00,meteohub,2013-08-06 05:42:00,
2013-08-06 01:47:00,61.7,56.5,29.99,North,10,0.0,0.0,83,0.00,,,0.00,meteohub,2013-08-06 05:47:00,
2013-08-06 01:52:00,61.7,56.8,29.99,North,10,0.0,0.0,84,0.00,,,0.00,meteohub,2013-08-06 05:52:00,
2013-08-06 01:57:00,61.7,56.8,29.99,North,10,0.0,0.0,84,0.00,,,0.00,meteohub,2013-08-06 05:57:00,
2013-08-06 02:02:00,61.9,57.4,29.99,NE,55,0.0,0.0,85,0.00,,,0.00,meteohub,2013-08-06 06:02:00,
2013-08-06 02:07:00,61.9,57.4,29.99,NE,55,0.0,0.0,85,0.00,,,0.00,meteohub,2013-08-06 06:07:00,
2013-08-06 02:12:00,61.9,57.4,29.99,SSW,212,0.0,0.0,85,0.00,,,0.00,meteohub,2013-08-06 06:12:00,
2013-08-06 02:17:00,61.9,57.4,29.99,ENE,78,0.0,0.0,85,0.00,,,0.00,meteohub,2013-08-06 06:17:00,
2013-08-06 02:22:00,61.9,57.4,29.99,ENE,78,0.0,0.0,85,0.00,,,0.00,meteohub,2013-08-06 06:22:00,
2013-08-06 02:27:00,61.9,57.4,29.99,ENE,78,0.0,0.0,85,0.00,,,0.00,meteohub,2013-08-06 06:27:00,
2013-08-06 02:32:00,61.9,57.6,29.99,SSE,168,0.0,0.0,86,0.00,,,0.00,meteohub,2013-08-06 06:32:00,
2013-08-06 02:37:00,61.9,57.9,29.99,SSE,168,0.0,0.0,87,0.00,,,0.00,meteohub,2013-08-06 06:37:00,
2013-08-06 02:42:00,61.9,57.9,29.99,NNW,348,0.0,0.0,87,0.00,,,0.00,meteohub,2013-08-06 06:42:00,
2013-08-06 02:47:00,61.9,57.9,29.99,NNW,348,0.0,0.0,87,0.00,,,0.00,meteohub,2013-08-06 06:47:00,
2013-08-06 02:52:00,61.9,57.9,29.99,NNW,348,0.0,0.0,87,0.00,,,0.00,meteohub,2013-08-06 06:52:00,
2013-08-06 02:57:00,61.7,57.7,29.96,NW,325,4.0,0.0,87,0.00,,,0.00,meteohub,2013-08-06 06:57:00,
2013-08-06 03:02:00,61.7,58.1,29.96,WNW,302,0.0,5.0,88,0.00,,,0.00,meteohub,2013-08-06 07:02:00,
2013-08-06 03:07:00,61.7,58.1,29.96,SSE,168,0.0,5.0,88,0.00,,,0.00,meteohub,2013-08-06 07:07:00,
2013-08-06 03:12:00,61.7,58.1,29.99,NNW,348,0.0,4.0,88,0.00,,,0.00,meteohub,2013-08-06 07:12:00,
2013-08-06 03:17:00,61.7,58.5,29.99,NNW,348,0.0,0.0,89,0.00,,,0.00,meteohub,2013-08-06 07:17:00,
2013-08-06 03:22:00,61.7,58.5,29.99,NNW,348,0.0,0.0,89,0.00,,,0.00,meteohub,2013-08-06 07:22:00,
2013-08-06 03:27:00,61.7,58.5,29.99,NW,325,0.0,0.0,89,0.00,,,0.00,meteohub,2013-08-06 07:27:00,
2013-08-06 03:32:00,61.7,58.5,29.99,NNW,348,0.0,0.0,89,0.00,,,0.00,meteohub,2013-08-06 07:32:00,
2013-08-06 03:37:00,61.7,58.5,29.99,WNW,302,0.0,0.0,89,0.00,,,0.00,meteohub,2013-08-06 07:37:00,
2013-08-06 03:42:00,61.7,58.5,29.99,WNW,302,0.0,0.0,89,0.00,,,0.00,meteohub,2013-08-06 07:42:00,
2013-08-06 03:47:00,61.7,58.5,29.99,SSE,168,0.0,0.0,89,0.00,,,0.00,meteohub,2013-08-06 07:47:00,
2013-08-06 03:52:00,61.7,58.5,29.99,SSE,168,0.0,0.0,89,0.00,,,0.00,meteohub,2013-08-06 07:52:00,
2013-08-06 03:57:00,61.7,58.5,29.99,SSE,168,0.0,0.0,89,0.00,,,0.00,meteohub,2013-08-06 07:57:00,
2013-08-06 04:02:00,61.5,58.3,29.99,SSE,168,0.0,0.0,89,0.00,,,0.00,meteohub,2013-08-06 08:02:00,
2013-08-06 04:07:00,61.5,58.3,29.99,SE,145,0.0,0.0,89,0.00,,,0.00,meteohub,2013-08-06 08:07:00,
2013-08-06 04:12:00,61.5,58.3,29.99,WSW,258,0.0,0.0,89,0.00,,,0.00,meteohub,2013-08-06 08:12:00,
2013-08-06 04:17:00,61.7,58.5,29.99,East,100,0.0,0.0,89,0.00,,,0.00,meteohub,2013-08-06 08:17:00,
2013-08-06 04:22:00,61.7,58.5,29.99,East,100,0.0,0.0,89,0.00,,,0.00,meteohub,2013-08-06 08:22:00,
2013-08-06 04:27:00,61.5,58.3,29.99,WNW,302,0.0,0.0,89,0.00,,,0.00,meteohub,2013-08-06 08:27:00,
2013-08-06 04:32:00,61.5,58.6,29.99,South,190,0.0,0.0,90,0.00,,,0.00,meteohub,2013-08-06 08:32:00,
2013-08-06 04:37:00,61.5,58.6,29.99,South,190,0.0,0.0,90,0.00,,,0.00,meteohub,2013-08-06 08:37:00,
2013-08-06 04:42:00,61.5,58.6,29.99,South,190,0.0,0.0,90,0.00,,,0.00,meteohub,2013-08-06 08:42:00,
2013-08-06 04:47:00,61.5,58.6,29.99,South,190,0.0,0.0,90,0.00,,,0.00,meteohub,2013-08-06 08:47:00,
2013-08-06 04:52:00,61.3,58.5,29.99,NNW,348,0.0,0.0,90,0.00,,,0.00,meteohub,2013-08-06 08:52:00,
2013-08-06 04:57:00,61.3,58.5,29.99,NNW,348,0.0,0.0,90,0.00,,,0.00,meteohub,2013-08-06 08:57:00,
2013-08-06 05:02:00,61.5,58.6,29.99,South,190,0.0,0.0,90,0.00,,,0.00,meteohub,2013-08-06 09:02:00,
2013-08-06 05:07:00,61.5,58.6,29.99,South,190,0.0,0.0,90,0.00,,,0.00,meteohub,2013-08-06 09:07:00,
2013-08-06 05:12:00,61.5,58.6,29.99,SE,145,0.0,0.0,90,0.00,,,0.00,meteohub,2013-08-06 09:12:00,
2013-08-06 05:17:00,61.7,58.8,29.99,SE,145,0.0,0.0,90,0.00,,,0.00,meteohub,2013-08-06 09:17:00,
2013-08-06 05:22:00,61.5,58.6,29.99,SE,145,0.0,0.0,90,0.00,,,0.00,meteohub,2013-08-06 09:22:00,
2013-08-06 05:27:00,61.5,58.6,29.99,NNE,32,0.0,0.0,90,0.00,,,0.00,meteohub,2013-08-06 09:27:00,
2013-08-06 05:32:00,61.5,58.8,29.99,NNE,32,0.0,0.0,91,0.00,,,0.00,meteohub,2013-08-06 09:32:00,
2013-08-06 05:37:00,61.5,58.8,29.99,NNE,32,0.0,0.0,91,0.00,,,0.00,meteohub,2013-08-06 09:37:00,
2013-08-06 05:42:00,61.5,58.8,29.99,NNE,32,0.0,0.0,91,0.00,,,0.00,meteohub,2013-08-06 09:42:00,
2013-08-06 05:47:00,61.5,58.8,29.99,NNE,32,0.0,0.0,91,0.00,,,0.00,meteohub,2013-08-06 09:47:00,
2013-08-06 05:52:00,61.5,58.8,29.99,NNE,32,0.0,0.0,91,0.00,,,0.00,meteohub,2013-08-06 09:52:00,
2013-08-06 05:57:00,61.5,59.2,29.99,NNE,32,0.0,0.0,92,0.00,,,0.00,meteohub,2013-08-06 09:57:00,
2013-08-06 06:02:00,61.5,59.2,29.99,NW,325,0.0,0.0,92,0.00,,,0.00,meteohub,2013-08-06 10:02:00,
2013-08-06 06:07:00,61.5,59.2,29.99,NNW,348,0.0,3.0,92,0.00,,,0.00,meteohub,2013-08-06 10:07:00,
2013-08-06 06:12:00,61.3,59.0,29.99,South,190,0.0,3.0,92,0.00,,,0.00,meteohub,2013-08-06 10:12:00,
2013-08-06 06:17:00,61.5,59.2,29.99,South,190,0.0,0.0,92,0.00,,,0.00,meteohub,2013-08-06 10:17:00,
2013-08-06 06:22:00,61.5,59.2,29.99,NNW,348,0.0,0.0,92,0.00,,,0.00,meteohub,2013-08-06 10:22:00,
2013-08-06 06:27:00,61.5,59.2,29.99,SSE,168,0.0,0.0,92,0.00,,,0.00,meteohub,2013-08-06 10:27:00,
2013-08-06 06:32:00,61.5,59.2,29.99,NW,325,0.0,0.0,92,0.00,,,0.00,meteohub,2013-08-06 10:32:00,
2013-08-06 06:37:00,61.5,59.5,29.99,WSW,258,0.0,0.0,93,0.00,,,0.00,meteohub,2013-08-06 10:37:00,
2013-08-06 06:42:00,61.3,59.4,29.96,SSE,168,0.0,0.0,93,0.00,,,0.00,meteohub,2013-08-06 10:42:00,
2013-08-06 06:47:00,61.5,59.5,29.96,SSE,168,2.0,5.0,93,0.00,,,0.00,meteohub,2013-08-06 10:47:00,
2013-08-06 06:52:00,61.5,59.5,29.96,North,10,0.0,5.0,93,0.00,,,0.00,meteohub,2013-08-06 10:52:00,
2013-08-06 06:57:00,61.5,59.5,29.99,North,10,0.0,4.0,93,0.00,,,0.00,meteohub,2013-08-06 10:57:00,
2013-08-06 07:02:00,61.3,59.4,29.99,NNW,348,0.0,4.0,93,0.00,,,0.00,meteohub,2013-08-06 11:02:00,
2013-08-06 07:07:00,61.5,59.5,29.99,NNE,32,0.0,4.0,93,0.00,,,0.00,meteohub,2013-08-06 11:07:00,
2013-08-06 07:12:00,61.3,59.5,29.99,SSW,212,0.0,4.0,94,0.00,,,0.00,meteohub,2013-08-06 11:12:00,
2013-08-06 07:17:00,61.5,59.7,29.99,SSW,212,0.0,3.0,94,0.00,,,0.00,meteohub,2013-08-06 11:17:00,
2013-08-06 07:22:00,61.7,59.9,29.99,SSW,212,0.0,0.0,94,0.00,,,0.00,meteohub,2013-08-06 11:22:00,
2013-08-06 07:27:00,61.5,59.7,29.99,NNW,348,0.0,0.0,94,0.00,,,0.00,meteohub,2013-08-06 11:27:00,
2013-08-06 07:32:00,61.5,59.7,29.99,East,100,0.0,0.0,94,0.00,,,0.00,meteohub,2013-08-06 11:32:00,
2013-08-06 07:37:00,61.7,59.9,29.99,ESE,122,0.0,0.0,94,0.00,,,0.00,meteohub,2013-08-06 11:37:00,
2013-08-06 07:42:00,61.7,59.9,29.99,ESE,122,0.0,0.0,94,0.00,,,0.00,meteohub,2013-08-06 11:42:00,
2013-08-06 07:47:00,61.9,60.4,29.99,East,100,0.0,0.0,95,0.00,,,0.00,meteohub,2013-08-06 11:47:00,
2013-08-06 07:52:00,61.9,60.1,29.99,NW,325,0.0,5.0,94,0.00,,,0.00,meteohub,2013-08-06 11:52:00,
2013-08-06 07:57:00,62.2,60.8,30.01,NNW,348,0.0,7.0,95,0.00,,,0.00,meteohub,2013-08-06 11:57:00,
2013-08-06 08:02:00,62.2,60.4,30.01,NNW,348,2.0,7.0,94,0.00,,,0.00,meteohub,2013-08-06 12:02:00,
2013-08-06 08:07:00,62.2,60.4,30.01,North,10,0.0,4.0,94,0.00,,,0.00,meteohub,2013-08-06 12:07:00,
2013-08-06 08:12:00,62.6,60.8,29.99,NNW,348,3.0,4.0,94,0.00,,,0.00,meteohub,2013-08-06 12:12:00,
2013-08-06 08:17:00,62.6,60.8,29.99,NW,325,0.0,5.0,94,0.00,,,0.00,meteohub,2013-08-06 12:17:00,
2013-08-06 08:22:00,62.8,61.0,29.99,WNW,302,0.0,5.0,94,0.00,,,0.00,meteohub,2013-08-06 12:22:00,
2013-08-06 08:27:00,62.8,61.0,29.99,WNW,302,0.0,5.0,94,0.00,,,0.00,meteohub,2013-08-06 12:27:00,
2013-08-06 08:32:00,63.1,61.3,30.01,South,190,0.0,3.0,94,0.00,,,0.00,meteohub,2013-08-06 12:32:00,
2013-08-06 08:37:00,63.5,61.7,30.01,SW,235,0.0,0.0,94,0.00,,,0.00,meteohub,2013-08-06 12:37:00,
2013-08-06 08:42:00,63.7,61.9,30.01,North,10,0.0,0.0,94,0.00,,,0.00,meteohub,2013-08-06 12:42:00,
2013-08-06 08:47:00,63.7,61.9,30.01,North,10,0.0,0.0,94,0.00,,,0.00,meteohub,2013-08-06 12:47:00,
2013-08-06 08:52:00,63.9,62.1,30.01,NNW,348,0.0,0.0,94,0.00,,,0.00,meteohub,2013-08-06 12:52:00,
2013-08-06 08:57:00,64.2,62.4,29.99,North,10,4.0,0.0,94,0.00,,,0.00,meteohub,2013-08-06 12:57:00,
2013-08-06 09:02:00,64.4,62.4,29.99,NNW,348,2.0,4.0,93,0.00,,,0.00,meteohub,2013-08-06 13:02:00,
2013-08-06 09:07:00,64.8,62.6,29.99,North,10,0.0,4.0,93,0.00,,,0.00,meteohub,2013-08-06 13:07:00,
2013-08-06 09:12:00,65.1,63.0,30.01,North,10,0.0,4.0,93,0.00,,,0.00,meteohub,2013-08-06 13:12:00,
2013-08-06 09:17:00,65.7,63.5,30.01,West,280,0.0,3.0,93,0.00,,,0.00,meteohub,2013-08-06 13:17:00,
2013-08-06 09:22:00,65.7,63.5,30.01,NNE,32,2.0,3.0,93,0.00,,,0.00,meteohub,2013-08-06 13:22:00,
2013-08-06 09:27:00,65.8,63.5,30.01,NW,325,0.0,3.0,92,0.00,,,0.00,meteohub,2013-08-06 13:27:00,
2013-08-06 09:32:00,66.0,63.7,30.01,WNW,302,0.0,3.0,92,0.00,,,0.00,meteohub,2013-08-06 13:32:00,
2013-08-06 09:37:00,66.4,63.3,30.01,NW,325,3.0,3.0,90,0.00,,,0.00,meteohub,2013-08-06 13:37:00,
2013-08-06 09:42:00,66.7,63.7,30.01,North,10,0.0,6.0,90,0.00,,,0.00,meteohub,2013-08-06 13:42:00,
2013-08-06 09:47:00,66.9,63.5,30.01,WNW,302,0.0,6.0,89,0.00,,,0.00,meteohub,2013-08-06 13:47:00,
2013-08-06 09:52:00,67.3,63.9,30.01,WNW,302,4.0,6.0,89,0.00,,,0.00,meteohub,2013-08-06 13:52:00,
2013-08-06 09:57:00,67.6,64.2,30.01,NW,325,3.0,5.0,89,0.00,,,0.00,meteohub,2013-08-06 13:57:00,
2013-08-06 10:02:00,68.2,64.8,30.01,East,100,5.0,5.0,89,0.00,,,0.00,meteohub,2013-08-06 14:02:00,
2013-08-06 10:07:00,68.5,65.1,30.01,North,10,0.0,6.0,89,0.00,,,0.00,meteohub,2013-08-06 14:07:00,
2013-08-06 10:12:00,68.9,65.1,29.99,SE,145,0.0,6.0,88,0.00,,,0.00,meteohub,2013-08-06 14:12:00,
2013-08-06 10:17:00,69.3,65.5,29.99,ENE,78,3.0,6.0,88,0.00,,,0.00,meteohub,2013-08-06 14:17:00,
2013-08-06 10:22:00,70.0,66.2,29.99,WNW,302,3.0,4.0,88,0.00,,,0.00,meteohub,2013-08-06 14:22:00,
2013-08-06 10:27:00,70.2,65.5,30.01,SSE,168,0.0,7.0,85,0.00,,,0.00,meteohub,2013-08-06 14:27:00,
2013-08-06 10:32:00,70.7,66.0,30.01,SW,235,2.0,7.0,85,0.00,,,0.00,meteohub,2013-08-06 14:32:00,
2013-08-06 10:37:00,70.9,64.4,30.01,NW,325,4.0,7.0,80,0.00,,,0.00,meteohub,2013-08-06 14:37:00,
2013-08-06 10:42:00,71.4,64.6,30.01,SW,235,3.0,8.0,79,0.00,,,0.00,meteohub,2013-08-06 14:42:00,
2013-08-06 10:47:00,72.0,65.1,30.01,NW,325,2.0,8.0,79,0.00,,,0.00,meteohub,2013-08-06 14:47:00,
2013-08-06 10:52:00,72.1,64.9,30.01,East,100,5.0,8.0,78,0.00,,,0.00,meteohub,2013-08-06 14:52:00,
2013-08-06 10:57:00,72.5,65.3,29.99,ESE,122,2.0,8.0,78,0.00,,,0.00,meteohub,2013-08-06 14:57:00,
2013-08-06 11:02:00,72.5,65.3,29.99,North,10,5.0,9.0,78,0.00,,,0.00,meteohub,2013-08-06 15:02:00,
2013-08-06 11:07:00,72.7,63.5,29.99,North,10,3.0,10.0,73,0.00,,,0.00,meteohub,2013-08-06 15:07:00,
2013-08-06 11:12:00,72.9,63.0,30.01,North,10,8.0,10.0,71,0.00,,,0.00,meteohub,2013-08-06 15:12:00,
2013-08-06 11:17:00,72.9,62.1,30.01,North,10,5.0,12.0,69,0.00,,,0.00,meteohub,2013-08-06 15:17:00,
2013-08-06 11:22:00,72.5,61.3,30.01,SSE,168,2.0,12.0,68,0.00,,,0.00,meteohub,2013-08-06 15:22:00,
2013-08-06 11:27:00,73.6,62.4,30.01,NNE,32,7.0,12.0,68,0.00,,,0.00,meteohub,2013-08-06 15:27:00,
2013-08-06 11:32:00,73.6,61.2,30.01,NNW,348,8.0,10.0,65,0.00,,,0.00,meteohub,2013-08-06 15:32:00,
2013-08-06 11:37:00,73.2,60.8,30.01,NE,55,5.0,10.0,65,0.00,,,0.00,meteohub,2013-08-06 15:37:00,
2013-08-06 11:42:00,73.8,60.8,30.01,SSW,212,4.0,12.0,64,0.00,,,0.00,meteohub,2013-08-06 15:42:00,
2013-08-06 11:47:00,74.1,59.4,30.01,ENE,78,2.0,12.0,60,0.00,,,0.00,meteohub,2013-08-06 15:47:00,
2013-08-06 11:52:00,74.7,59.9,30.01,WNW,302,5.0,12.0,60,0.00,,,0.00,meteohub,2013-08-06 15:52:00,
2013-08-06 11:57:00,74.8,61.9,29.99,WSW,258,2.0,8.0,64,0.00,,,0.00,meteohub,2013-08-06 15:57:00,
2013-08-06 12:02:00,75.4,61.5,29.99,NNW,348,7.0,7.0,62,0.00,,,0.00,meteohub,2013-08-06 16:02:00,
2013-08-06 12:07:00,75.2,59.4,29.99,WNW,302,5.0,10.0,58,0.00,,,0.00,meteohub,2013-08-06 16:07:00,
2013-08-06 12:12:00,75.2,59.4,29.99,North,10,4.0,12.0,58,0.00,,,0.00,meteohub,2013-08-06 16:12:00,
2013-08-06 12:17:00,74.8,59.0,29.99,ENE,78,3.0,12.0,58,0.00,,,0.00,meteohub,2013-08-06 16:17:00,
2013-08-06 12:22:00,74.5,59.7,29.99,NNW,348,5.0,10.0,60,0.00,,,0.00,meteohub,2013-08-06 16:22:00,
2013-08-06 12:27:00,75.0,60.3,29.99,NNE,32,6.0,6.0,60,0.00,,,0.00,meteohub,2013-08-06 16:27:00,
2013-08-06 12:32:00,75.9,59.5,29.99,West,280,4.0,8.0,57,0.00,,,0.00,meteohub,2013-08-06 16:32:00,
2013-08-06 12:37:00,76.8,60.4,29.99,South,190,7.0,8.0,57,0.00,,,0.00,meteohub,2013-08-06 16:37:00,
2013-08-06 12:42:00,76.5,59.2,29.99,South,190,4.0,9.0,55,0.00,,,0.00,meteohub,2013-08-06 16:42:00,
2013-08-06 12:47:00,76.3,57.4,29.99,WNW,302,2.0,13.0,52,0.00,,,0.00,meteohub,2013-08-06 16:47:00,
2013-08-06 12:52:00,77.0,61.5,29.99,NW,325,7.0,13.0,59,0.00,,,0.00,meteohub,2013-08-06 16:52:00,
2013-08-06 12:57:00,76.8,60.4,30.01,SSW,212,11.0,13.0,57,0.00,,,0.00,meteohub,2013-08-06 16:57:00,
2013-08-06 13:27:00,77.4,59.4,29.99,NNW,348,3.0,12.0,54,0.00,,,0.00,meteohub,2013-08-06 17:27:00,
2013-08-06 13:32:00,77.2,60.3,29.99,SSE,168,0.0,12.0,56,0.00,,,0.00,meteohub,2013-08-06 17:32:00,
2013-08-06 13:37:00,77.4,61.0,29.99,WNW,302,2.0,8.0,57,0.00,,,0.00,meteohub,2013-08-06 17:37:00,
2013-08-06 13:47:00,78.4,58.3,29.99,ENE,78,7.0,8.0,50,0.00,,,0.00,meteohub,2013-08-06 17:47:00,
2013-08-06 13:52:00,78.1,57.4,29.99,SSW,212,8.0,8.0,49,0.00,,,0.00,meteohub,2013-08-06 17:52:00,
2013-08-06 13:57:00,78.1,57.9,29.99,West,280,3.0,9.0,50,0.00,,,0.00,meteohub,2013-08-06 17:57:00,
2013-08-06 14:02:00,78.6,56.7,29.99,NE,55,5.0,10.0,47,0.00,,,0.00,meteohub,2013-08-06 18:02:00,
2013-08-06 14:07:00,79.2,57.7,29.99,South,190,0.0,10.0,48,0.00,,,0.00,meteohub,2013-08-06 18:07:00,
2013-08-06 14:12:00,79.7,59.9,29.99,ESE,122,5.0,10.0,51,0.00,,,0.00,meteohub,2013-08-06 18:12:00,
2013-08-06 14:17:00,79.7,59.4,29.99,NNW,348,4.0,7.0,50,0.00,,,0.00,meteohub,2013-08-06 18:17:00,
2013-08-06 14:22:00,79.0,56.5,29.99,WNW,302,8.0,8.0,46,0.00,,,0.00,meteohub,2013-08-06 18:22:00,
2013-08-06 14:27:00,78.4,57.2,29.96,WSW,258,6.0,9.0,48,0.00,,,0.00,meteohub,2013-08-06 18:27:00,
2013-08-06 14:32:00,78.6,56.7,29.96,SSE,168,3.0,9.0,47,0.00,,,0.00,meteohub,2013-08-06 18:32:00,
2013-08-06 14:37:00,78.1,57.9,29.96,WNW,302,4.0,9.0,50,0.00,,,0.00,meteohub,2013-08-06 18:37:00,
2013-08-06 14:42:00,78.4,57.2,29.99,NE,55,5.0,9.0,48,0.00,,,0.00,meteohub,2013-08-06 18:42:00,
2013-08-06 14:47:00,79.2,57.7,29.99,NNW,348,6.0,9.0,48,0.00,,,0.00,meteohub,2013-08-06 18:47:00,
2013-08-06 14:52:00,79.7,57.0,29.99,WSW,258,3.0,11.0,46,0.00,,,0.00,meteohub,2013-08-06 18:52:00,
2013-08-06 14:57:00,80.8,58.6,29.99,NNW,348,3.0,11.0,47,0.00,,,0.00,meteohub,2013-08-06 18:57:00,
2013-08-06 15:02:00,80.1,56.8,29.99,SSW,212,5.0,13.0,45,0.00,,,0.00,meteohub,2013-08-06 19:02:00,
2013-08-06 15:12:00,80.8,57.4,30.01,WSW,258,11.0,13.0,45,0.00,,,0.00,meteohub,2013-08-06 19:12:00,
2013-08-06 15:17:00,81.3,58.6,30.01,ENE,78,3.0,11.0,46,0.00,,,0.00,meteohub,2013-08-06 19:17:00,
2013-08-06 15:22:00,81.5,58.6,30.01,SW,235,5.0,11.0,46,0.00,,,0.00,meteohub,2013-08-06 19:22:00,
2013-08-06 15:27:00,81.3,58.6,29.99,SSE,168,2.0,11.0,46,0.00,,,0.00,meteohub,2013-08-06 19:27:00,
2013-08-06 15:32:00,80.2,58.8,29.99,WSW,258,2.0,6.0,48,0.00,,,0.00,meteohub,2013-08-06 19:32:00,
2013-08-06 15:37:00,80.8,60.4,29.99,NNE,32,2.0,6.0,50,0.00,,,0.00,meteohub,2013-08-06 19:37:00,
2013-08-06 15:42:00,81.3,59.2,29.99,SSW,212,0.0,5.0,47,0.00,,,0.00,meteohub,2013-08-06 19:42:00,
2013-08-06 15:47:00,81.7,57.7,29.99,NE,55,0.0,5.0,44,0.00,,,0.00,meteohub,2013-08-06 19:47:00,
2013-08-06 15:52:00,81.5,56.1,29.99,NNE,32,3.0,8.0,42,0.00,,,0.00,meteohub,2013-08-06 19:52:00,
2013-08-06 15:57:00,81.3,56.1,29.99,North,10,8.0,9.0,42,0.00,,,0.00,meteohub,2013-08-06 19:57:00,
2013-08-06 16:02:00,81.9,58.5,29.99,SSW,212,2.0,9.0,45,0.00,,,0.00,meteohub,2013-08-06 20:02:00,
2013-08-06 16:07:00,82.2,57.6,29.99,SW,235,5.0,9.0,43,0.00,,,0.00,meteohub,2013-08-06 20:07:00,
2013-08-06 16:12:00,82.0,57.9,29.99,East,100,7.0,9.0,44,0.00,,,0.00,meteohub,2013-08-06 20:12:00,
2013-08-06 16:17:00,81.7,58.3,29.99,SSE,168,3.0,9.0,45,0.00,,,0.00,meteohub,2013-08-06 20:17:00,
2013-08-06 16:22:00,81.3,58.6,29.99,ENE,78,2.0,9.0,46,0.00,,,0.00,meteohub,2013-08-06 20:22:00,
2013-08-06 16:27:00,81.0,59.4,29.99,South,190,5.0,7.0,48,0.00,,,0.00,meteohub,2013-08-06 20:27:00,
2013-08-06 16:32:00,80.6,60.3,29.99,SE,145,3.0,7.0,50,0.00,,,0.00,meteohub,2013-08-06 20:32:00,
2013-08-06 16:37:00,80.6,59.7,29.99,ESE,122,4.0,7.0,49,0.00,,,0.00,meteohub,2013-08-06 20:37:00,
2013-08-06 16:42:00,81.0,60.6,29.99,NNW,348,3.0,7.0,50,0.00,,,0.00,meteohub,2013-08-06 20:42:00,
2013-08-06 16:47:00,81.7,58.3,29.99,NNW,348,4.0,7.0,45,0.00,,,0.00,meteohub,2013-08-06 20:47:00,
2013-08-06 16:52:00,81.9,58.5,29.99,SW,235,5.0,9.0,45,0.00,,,0.00,meteohub,2013-08-06 20:52:00,
2013-08-06 16:57:00,82.4,58.3,29.99,SW,235,5.0,9.0,44,0.00,,,0.00,meteohub,2013-08-06 20:57:00,
2013-08-06 17:02:00,82.6,57.2,29.99,WSW,258,3.0,11.0,42,0.00,,,0.00,meteohub,2013-08-06 21:02:00,
2013-08-06 17:07:00,82.6,57.7,29.99,NW,325,6.0,11.0,43,0.00,,,0.00,meteohub,2013-08-06 21:07:00,
2013-08-06 17:12:00,82.0,57.9,29.99,SSE,168,9.0,11.0,44,0.00,,,0.00,meteohub,2013-08-06 21:12:00,
2013-08-06 17:17:00,81.5,57.6,29.99,SW,235,0.0,9.0,44,0.00,,,0.00,meteohub,2013-08-06 21:17:00,
2013-08-06 17:22:00,81.7,58.3,29.99,SE,145,2.0,9.0,45,0.00,,,0.00,meteohub,2013-08-06 21:22:00,
2013-08-06 17:27:00,81.9,57.2,29.99,SE,145,3.0,9.0,43,0.00,,,0.00,meteohub,2013-08-06 21:27:00,
2013-08-06 17:32:00,81.0,57.6,29.99,NNW,348,3.0,6.0,45,0.00,,,0.00,meteohub,2013-08-06 21:32:00,
2013-08-06 17:37:00,80.6,56.7,29.99,SW,235,4.0,7.0,44,0.00,,,0.00,meteohub,2013-08-06 21:37:00,
2013-08-06 17:42:00,81.0,58.8,29.99,South,190,0.0,7.0,47,0.00,,,0.00,meteohub,2013-08-06 21:42:00,
2013-08-06 17:47:00,80.8,57.4,29.99,SE,145,4.0,7.0,45,0.00,,,0.00,meteohub,2013-08-06 21:47:00,
2013-08-06 17:52:00,80.8,58.1,29.99,NNE,32,3.0,7.0,46,0.00,,,0.00,meteohub,2013-08-06 21:52:00,
2013-08-06 17:57:00,80.6,56.7,29.99,North,10,6.0,6.0,44,0.00,,,0.00,meteohub,2013-08-06 21:57:00,
2013-08-06 18:02:00,80.2,57.6,29.99,SSW,212,5.0,7.0,46,0.00,,,0.00,meteohub,2013-08-06 22:02:00,
2013-08-06 18:07:00,80.2,57.0,29.99,WSW,258,3.0,9.0,45,0.00,,,0.00,meteohub,2013-08-06 22:07:00,
2013-08-06 18:12:00,80.4,57.2,29.99,SSE,168,5.0,9.0,45,0.00,,,0.00,meteohub,2013-08-06 22:12:00,
2013-08-06 18:17:00,80.1,57.4,29.99,SE,145,5.0,9.0,46,0.00,,,0.00,meteohub,2013-08-06 22:17:00,
2013-08-06 18:22:00,79.9,57.9,29.99,WSW,258,5.0,7.0,47,0.00,,,0.00,meteohub,2013-08-06 22:22:00,
2013-08-06 18:27:00,79.7,58.3,29.96,NE,55,2.0,7.0,48,0.00,,,0.00,meteohub,2013-08-06 22:27:00,
2013-08-06 18:32:00,79.5,57.6,29.96,SSW,212,5.0,6.0,47,0.00,,,0.00,meteohub,2013-08-06 22:32:00,
2013-08-06 18:37:00,79.3,58.5,29.96,WSW,258,5.0,6.0,49,0.00,,,0.00,meteohub,2013-08-06 22:37:00,
2013-08-06 18:42:00,78.8,57.4,30.01,SSW,212,0.0,6.0,48,0.00,,,0.00,meteohub,2013-08-06 22:42:00,
2013-08-06 18:47:00,78.6,59.0,30.01,SSE,168,3.0,7.0,51,0.00,,,0.00,meteohub,2013-08-06 22:47:00,
2013-08-06 18:52:00,78.3,58.6,30.01,SSW,212,3.0,7.0,51,0.00,,,0.00,meteohub,2013-08-06 22:52:00,
2013-08-06 18:57:00,78.3,59.2,29.99,ESE,122,4.0,7.0,52,0.00,,,0.00,meteohub,2013-08-06 22:57:00,
2013-08-06 19:02:00,77.9,59.4,29.99,South,190,2.0,6.0,53,0.00,,,0.00,meteohub,2013-08-06 23:02:00,
2013-08-06 19:07:00,77.7,59.2,29.99,SE,145,3.0,6.0,53,0.00,,,0.00,meteohub,2013-08-06 23:07:00,
2013-08-06 19:12:00,77.7,59.7,29.99,SSW,212,0.0,6.0,54,0.00,,,0.00,meteohub,2013-08-06 23:12:00,
2013-08-06 19:17:00,77.4,59.9,29.99,SSE,168,2.0,5.0,55,0.00,,,0.00,meteohub,2013-08-06 23:17:00,
2013-08-06 19:22:00,77.2,59.7,29.99,SE,145,3.0,5.0,55,0.00,,,0.00,meteohub,2013-08-06 23:22:00,
2013-08-06 19:27:00,76.6,60.3,29.99,SE,145,3.0,4.0,57,0.00,,,0.00,meteohub,2013-08-06 23:27:00,
2013-08-06 19:32:00,76.5,60.1,29.99,ESE,122,4.0,5.0,57,0.00,,,0.00,meteohub,2013-08-06 23:32:00,
2013-08-06 19:37:00,76.1,60.3,29.99,SE,145,3.0,5.0,58,0.00,,,0.00,meteohub,2013-08-06 23:37:00,
2013-08-06 19:42:00,75.9,60.1,29.96,SE,145,3.0,5.0,58,0.00,,,0.00,meteohub,2013-08-06 23:42:00,
2013-08-06 19:47:00,75.7,60.4,29.96,SE,145,0.0,5.0,59,0.00,,,0.00,meteohub,2013-08-06 23:47:00,
2013-08-06 19:52:00,75.6,60.3,29.96,SSE,168,0.0,4.0,59,0.00,,,0.00,meteohub,2013-08-06 23:52:00,
2013-08-06 19:57:00,75.2,59.9,29.99,SE,145,0.0,4.0,59,0.00,,,0.00,meteohub,2013-08-06 23:57:00,
2013-08-06 20:02:00,75.0,60.3,29.99,SE,145,0.0,2.0,60,0.00,,,0.00,meteohub,2013-08-07 00:02:00,
2013-08-06 20:07:00,74.7,59.9,29.99,SSE,168,0.0,0.0,60,0.00,,,0.00,meteohub,2013-08-07 00:07:00,
2013-08-06 20:12:00,74.3,59.9,29.96,SE,145,0.0,0.0,61,0.00,,,0.00,meteohub,2013-08-07 00:12:00,
2013-08-06 20:17:00,73.9,59.7,29.96,South,190,4.0,0.0,61,0.00,,,0.00,meteohub,2013-08-07 00:17:00,
2013-08-06 20:22:00,73.6,59.4,29.96,SSE,168,0.0,4.0,61,0.00,,,0.00,meteohub,2013-08-07 00:22:00,
2013-08-06 20:27:00,73.4,59.5,29.99,SE,145,0.0,4.0,62,0.00,,,0.00,meteohub,2013-08-07 00:27:00,
2013-08-06 20:32:00,73.2,59.4,29.99,SE,145,0.0,4.0,62,0.00,,,0.00,meteohub,2013-08-07 00:32:00,
2013-08-06 20:37:00,72.9,59.5,29.99,ESE,122,0.0,0.0,63,0.00,,,0.00,meteohub,2013-08-07 00:37:00,
2013-08-06 20:42:00,72.7,59.4,29.99,SE,145,0.0,0.0,63,0.00,,,0.00,meteohub,2013-08-07 00:42:00,
2013-08-06 20:47:00,72.5,59.2,29.99,SE,145,0.0,0.0,63,0.00,,,0.00,meteohub,2013-08-07 00:47:00,
2013-08-06 20:52:00,72.1,59.4,29.99,SE,145,0.0,0.0,64,0.00,,,0.00,meteohub,2013-08-07 00:52:00,
2013-08-06 21:02:00,71.4,59.0,29.99,SSE,168,0.0,0.0,65,0.00,,,0.00,meteohub,2013-08-07 01:02:00,
2013-08-06 21:07:00,71.2,58.8,29.99,SSE,168,0.0,0.0,65,0.00,,,0.00,meteohub,2013-08-07 01:07:00,
2013-08-06 21:12:00,71.1,59.2,29.99,SE,145,0.0,0.0,66,0.00,,,0.00,meteohub,2013-08-07 01:12:00,
2013-08-06 21:17:00,70.9,59.0,29.99,ENE,78,0.0,0.0,66,0.00,,,0.00,meteohub,2013-08-07 01:17:00,
2013-08-06 21:22:00,70.7,59.2,29.99,SSE,168,0.0,0.0,67,0.00,,,0.00,meteohub,2013-08-07 01:22:00,
2013-08-06 21:27:00,70.5,59.0,29.99,SE,145,0.0,0.0,67,0.00,,,0.00,meteohub,2013-08-07 01:27:00,
2013-08-06 21:32:00,70.5,59.0,29.99,ESE,122,0.0,0.0,67,0.00,,,0.00,meteohub,2013-08-07 01:32:00,
2013-08-06 21:37:00,70.2,59.2,29.99,ESE,122,0.0,0.0,68,0.00,,,0.00,meteohub,2013-08-07 01:37:00,
2013-08-06 21:42:00,70.0,59.0,29.99,SE,145,0.0,0.0,68,0.00,,,0.00,meteohub,2013-08-07 01:42:00,
2013-08-06 21:47:00,69.6,59.0,29.99,South,190,0.0,0.0,69,0.00,,,0.00,meteohub,2013-08-07 01:47:00,
2013-08-06 21:52:00,69.6,59.4,29.99,SSW,212,0.0,0.0,70,0.00,,,0.00,meteohub,2013-08-07 01:52:00,
2013-08-06 21:57:00,69.3,59.0,29.99,South,190,0.0,0.0,70,0.00,,,0.00,meteohub,2013-08-07 01:57:00,
2013-08-06 22:02:00,68.9,59.2,29.99,South,190,0.0,0.0,71,0.00,,,0.00,meteohub,2013-08-07 02:02:00,
2013-08-06 22:07:00,68.9,59.2,29.99,WNW,302,0.0,0.0,71,0.00,,,0.00,meteohub,2013-08-07 02:07:00,
2013-08-06 22:12:00,68.7,59.0,30.01,SSE,168,0.0,5.0,71,0.00,,,0.00,meteohub,2013-08-07 02:12:00,
2013-08-06 22:17:00,68.7,59.4,30.01,SE,145,0.0,5.0,72,0.00,,,0.00,meteohub,2013-08-07 02:17:00,
2013-08-06 22:22:00,68.5,59.2,30.01,NW,325,0.0,5.0,72,0.00,,,0.00,meteohub,2013-08-07 02:22:00,
2013-08-06 22:27:00,68.2,59.2,30.01,East,100,0.0,4.0,73,0.00,,,0.00,meteohub,2013-08-07 02:27:00,
2013-08-06 22:32:00,68.2,59.2,30.01,East,100,0.0,4.0,73,0.00,,,0.00,meteohub,2013-08-07 02:32:00,
2013-08-06 22:37:00,68.4,59.7,30.01,East,100,0.0,0.0,74,0.00,,,0.00,meteohub,2013-08-07 02:37:00,
2013-08-06 22:42:00,68.0,59.4,30.01,WSW,258,3.0,0.0,74,0.00,,,0.00,meteohub,2013-08-07 02:42:00,
2013-08-06 22:47:00,67.8,59.5,30.01,NNE,32,0.0,3.0,75,0.00,,,0.00,meteohub,2013-08-07 02:47:00,
2013-08-06 22:52:00,67.6,59.7,30.01,ESE,122,0.0,3.0,76,0.00,,,0.00,meteohub,2013-08-07 02:52:00,
2013-08-06 22:57:00,67.5,59.7,30.01,NE,55,0.0,3.0,76,0.00,,,0.00,meteohub,2013-08-07 02:57:00,
2013-08-06 23:02:00,67.5,59.7,30.01,South,190,0.0,3.0,76,0.00,,,0.00,meteohub,2013-08-07 03:02:00,
2013-08-06 23:07:00,67.3,59.9,30.01,South,190,0.0,0.0,77,0.00,,,0.00,meteohub,2013-08-07 03:07:00,
2013-08-06 23:12:00,67.1,59.7,30.04,SSE,168,0.0,0.0,77,0.00,,,0.00,meteohub,2013-08-07 03:12:00,
2013-08-06 23:17:00,66.9,59.5,30.04,NE,55,0.0,0.0,77,0.00,,,0.00,meteohub,2013-08-07 03:17:00,
2013-08-06 23:22:00,66.7,59.7,30.04,WNW,302,0.0,0.0,78,0.00,,,0.00,meteohub,2013-08-07 03:22:00,
2013-08-06 23:27:00,66.7,59.7,30.04,NE,55,0.0,0.0,78,0.00,,,0.00,meteohub,2013-08-07 03:27:00,
2013-08-06 23:32:00,66.7,59.7,30.04,SE,145,3.0,0.0,78,0.00,,,0.00,meteohub,2013-08-07 03:32:00,
2013-08-06 23:37:00,66.6,59.9,30.04,SSW,212,0.0,3.0,79,0.00,,,0.00,meteohub,2013-08-07 03:37:00,
2013-08-06 23:42:00,66.6,59.9,30.01,SW,235,0.0,3.0,79,0.00,,,0.00,meteohub,2013-08-07 03:42:00,
2013-08-06 23:47:00,66.4,59.7,30.01,West,280,0.0,3.0,79,0.00,,,0.00,meteohub,2013-08-07 03:47:00,
2013-08-06 23:52:00,66.4,60.1,30.01,East,100,0.0,3.0,80,0.00,,,0.00,meteohub,2013-08-07 03:52:00,
2013-08-06 23:57:00,66.4,60.1,30.01,East,100,0.0,2.0,80,0.00,,,0.00,meteohub,2013-08-07 03:57:00,